Data supplied by UK-AIR on 5/4/2008
All Data GMT hour ending 
Status: R =Ratified P=Provisional,P*=As supplied
,,Billingham,,,,,,,,,,,,,,,,,,,,,,,
Date,time,"Nitric oxide",status,unit,"Nitrogen dioxide",status,unit,"Nitrogen oxides as nitrogen dioxide",status,unit
 
01-01-1987,01:00,8,R,ugm-3,13,R,ugm-3,25,R,ugm-3
01-01-1987,02:00,8,R,ugm-3,11,R,ugm-3,23,R,ugm-3
01-01-1987,03:00,6,R,ugm-3,10,R,ugm-3,19,R,ugm-3
01-01-1987,04:00,6,R,ugm-3,8,R,ugm-3,17,R,ugm-3
01-01-1987,05:00,6,R,ugm-3,6,R,ugm-3,15,R,ugm-3
01-01-1987,06:00,6,R,ugm-3,4,R,ugm-3,13,R,ugm-3
01-01-1987,07:00,5,R,ugm-3,6,R,ugm-3,13,R,ugm-3
01-01-1987,08:00,6,R,ugm-3,4,R,ugm-3,13,R,ugm-3
01-01-1987,09:00,5,R,ugm-3,11,R,ugm-3,19,R,ugm-3
01-01-1987,10:00,5,R,ugm-3,15,R,ugm-3,23,R,ugm-3
01-01-1987,11:00,5,R,ugm-3,8,R,ugm-3,15,R,ugm-3
01-01-1987,12:00,5,R,ugm-3,8,R,ugm-3,15,R,ugm-3
01-01-1987,13:00,5,R,ugm-3,8,R,ugm-3,15,R,ugm-3
01-01-1987,14:00,5,R,ugm-3,10,R,ugm-3,17,R,ugm-3
01-01-1987,15:00,5,R,ugm-3,8,R,ugm-3,15,R,ugm-3
01-01-1987,16:00,4,R,ugm-3,10,R,ugm-3,15,R,ugm-3
01-01-1987,17:00,5,R,ugm-3,11,R,ugm-3,19,R,ugm-3
01-01-1987,18:00,6,R,ugm-3,17,R,ugm-3,27,R,ugm-3
01-01-1987,19:00,29,R,ugm-3,50,R,ugm-3,94,R,ugm-3
01-01-1987,20:00,46,R,ugm-3,48,R,ugm-3,118,R,ugm-3
01-01-1987,21:00,34,R,ugm-3,46,R,ugm-3,97,R,ugm-3
01-01-1987,22:00,16,R,ugm-3,38,R,ugm-3,63,R,ugm-3
01-01-1987,23:00,11,R,ugm-3,34,R,ugm-3,52,R,ugm-3
01-01-1987,24:00,6,R,ugm-3,21,R,ugm-3,31,R,ugm-3
02-01-1987,01:00,5,R,ugm-3,13,R,ugm-3,21,R,ugm-3
02-01-1987,02:00,8,R,ugm-3,15,R,ugm-3,27,R,ugm-3
02-01-1987,03:00,4,R,ugm-3,13,R,ugm-3,19,R,ugm-3
02-01-1987,04:00,4,R,ugm-3,11,R,ugm-3,17,R,ugm-3
02-01-1987,05:00,4,R,ugm-3,10,R,ugm-3,15,R,ugm-3
02-01-1987,06:00,5,R,ugm-3,11,R,ugm-3,19,R,ugm-3
02-01-1987,07:00,8,R,ugm-3,15,R,ugm-3,27,R,ugm-3
02-01-1987,08:00,8,R,ugm-3,13,R,ugm-3,25,R,ugm-3
02-01-1987,09:00,24,R,ugm-3,31,R,ugm-3,67,R,ugm-3
02-01-1987,10:00,10,R,ugm-3,17,R,ugm-3,32,R,ugm-3
02-01-1987,11:00,14,R,ugm-3,19,R,ugm-3,40,R,ugm-3
02-01-1987,12:00,9,R,ugm-3,15,R,ugm-3,29,R,ugm-3
02-01-1987,13:00,6,R,ugm-3,15,R,ugm-3,25,R,ugm-3
02-01-1987,14:00,10,R,ugm-3,15,R,ugm-3,31,R,ugm-3
02-01-1987,15:00,10,R,ugm-3,17,R,ugm-3,32,R,ugm-3
02-01-1987,16:00,8,R,ugm-3,13,R,ugm-3,25,R,ugm-3
02-01-1987,17:00,6,R,ugm-3,11,R,ugm-3,21,R,ugm-3
02-01-1987,18:00,6,R,ugm-3,11,R,ugm-3,21,R,ugm-3
02-01-1987,19:00,5,R,ugm-3,11,R,ugm-3,19,R,ugm-3
02-01-1987,20:00,5,R,ugm-3,8,R,ugm-3,15,R,ugm-3
02-01-1987,21:00,8,R,ugm-3,15,R,ugm-3,27,R,ugm-3
02-01-1987,22:00,8,R,ugm-3,29,R,ugm-3,40,R,ugm-3
02-01-1987,23:00,18,R,ugm-3,44,R,ugm-3,71,R,ugm-3
02-01-1987,24:00,44,R,ugm-3,63,R,ugm-3,130,R,ugm-3
03-01-1987,01:00,18,R,ugm-3,42,R,ugm-3,69,R,ugm-3
03-01-1987,02:00,38,R,ugm-3,80,R,ugm-3,138,R,ugm-3
03-01-1987,03:00,6,R,ugm-3,21,R,ugm-3,31,R,ugm-3
03-01-1987,04:00,5,R,ugm-3,11,R,ugm-3,19,R,ugm-3
03-01-1987,05:00,5,R,ugm-3,11,R,ugm-3,19,R,ugm-3
03-01-1987,06:00,5,R,ugm-3,13,R,ugm-3,21,R,ugm-3
03-01-1987,07:00,8,R,ugm-3,17,R,ugm-3,29,R,ugm-3
03-01-1987,08:00,16,R,ugm-3,36,R,ugm-3,61,R,ugm-3
03-01-1987,09:00,38,R,ugm-3,48,R,ugm-3,105,R,ugm-3
03-01-1987,10:00,71,R,ugm-3,48,R,ugm-3,157,R,ugm-3
03-01-1987,11:00,75,R,ugm-3,46,R,ugm-3,160,R,ugm-3
03-01-1987,12:00,43,R,ugm-3,42,R,ugm-3,107,R,ugm-3
03-01-1987,13:00,48,R,ugm-3,46,R,ugm-3,118,R,ugm-3
03-01-1987,14:00,55,R,ugm-3,50,R,ugm-3,134,R,ugm-3
03-01-1987,15:00,33,R,ugm-3,44,R,ugm-3,94,R,ugm-3
03-01-1987,16:00,56,R,ugm-3,48,R,ugm-3,134,R,ugm-3
03-01-1987,17:00,33,R,ugm-3,48,R,ugm-3,97,R,ugm-3
03-01-1987,18:00,39,R,ugm-3,50,R,ugm-3,109,R,ugm-3
03-01-1987,19:00,29,R,ugm-3,44,R,ugm-3,88,R,ugm-3
03-01-1987,20:00,13,R,ugm-3,36,R,ugm-3,55,R,ugm-3
03-01-1987,21:00,11,R,ugm-3,40,R,ugm-3,57,R,ugm-3
03-01-1987,22:00,8,R,ugm-3,46,R,ugm-3,57,R,ugm-3
03-01-1987,23:00,15,R,ugm-3,53,R,ugm-3,76,R,ugm-3
03-01-1987,24:00,29,R,ugm-3,57,R,ugm-3,101,R,ugm-3
04-01-1987,01:00,26,R,ugm-3,50,R,ugm-3,90,R,ugm-3
04-01-1987,02:00,13,R,ugm-3,42,R,ugm-3,61,R,ugm-3
04-01-1987,03:00,6,R,ugm-3,32,R,ugm-3,42,R,ugm-3
04-01-1987,04:00,4,R,ugm-3,32,R,ugm-3,38,R,ugm-3
04-01-1987,05:00,5,R,ugm-3,23,R,ugm-3,31,R,ugm-3
04-01-1987,06:00,4,R,ugm-3,21,R,ugm-3,27,R,ugm-3
04-01-1987,07:00,5,R,ugm-3,17,R,ugm-3,25,R,ugm-3
04-01-1987,08:00,4,R,ugm-3,17,R,ugm-3,23,R,ugm-3
04-01-1987,09:00,5,R,ugm-3,15,R,ugm-3,23,R,ugm-3
04-01-1987,10:00,5,R,ugm-3,13,R,ugm-3,21,R,ugm-3
04-01-1987,11:00,5,R,ugm-3,15,R,ugm-3,23,R,ugm-3
04-01-1987,12:00,6,R,ugm-3,19,R,ugm-3,29,R,ugm-3
04-01-1987,13:00,6,R,ugm-3,25,R,ugm-3,34,R,ugm-3
04-01-1987,14:00,6,R,ugm-3,21,R,ugm-3,31,R,ugm-3
04-01-1987,15:00,9,R,ugm-3,25,R,ugm-3,38,R,ugm-3
04-01-1987,16:00,9,R,ugm-3,19,R,ugm-3,32,R,ugm-3
04-01-1987,17:00,9,R,ugm-3,19,R,ugm-3,32,R,ugm-3
04-01-1987,18:00,8,R,ugm-3,25,R,ugm-3,36,R,ugm-3
04-01-1987,19:00,8,R,ugm-3,29,R,ugm-3,40,R,ugm-3
04-01-1987,20:00,9,R,ugm-3,27,R,ugm-3,40,R,ugm-3
04-01-1987,21:00,5,R,ugm-3,17,R,ugm-3,25,R,ugm-3
04-01-1987,22:00,8,R,ugm-3,17,R,ugm-3,29,R,ugm-3
04-01-1987,23:00,5,R,ugm-3,17,R,ugm-3,25,R,ugm-3
04-01-1987,24:00,6,R,ugm-3,17,R,ugm-3,27,R,ugm-3
05-01-1987,01:00,5,R,ugm-3,11,R,ugm-3,19,R,ugm-3
05-01-1987,02:00,4,R,ugm-3,11,R,ugm-3,17,R,ugm-3
05-01-1987,03:00,3,R,ugm-3,10,R,ugm-3,13,R,ugm-3
05-01-1987,04:00,3,R,ugm-3,10,R,ugm-3,13,R,ugm-3
05-01-1987,05:00,3,R,ugm-3,10,R,ugm-3,13,R,ugm-3
05-01-1987,06:00,3,R,ugm-3,11,R,ugm-3,15,R,ugm-3
05-01-1987,07:00,4,R,ugm-3,21,R,ugm-3,27,R,ugm-3
05-01-1987,08:00,11,R,ugm-3,29,R,ugm-3,46,R,ugm-3
05-01-1987,09:00,23,R,ugm-3,44,R,ugm-3,78,R,ugm-3
05-01-1987,10:00,23,R,ugm-3,38,R,ugm-3,73,R,ugm-3
05-01-1987,11:00,16,R,ugm-3,29,R,ugm-3,53,R,ugm-3
05-01-1987,12:00,18,R,ugm-3,23,R,ugm-3,50,R,ugm-3
05-01-1987,13:00,18,R,ugm-3,23,R,ugm-3,50,R,ugm-3
05-01-1987,14:00,19,R,ugm-3,21,R,ugm-3,50,R,ugm-3
05-01-1987,15:00,18,R,ugm-3,25,R,ugm-3,52,R,ugm-3
05-01-1987,16:00,16,R,ugm-3,25,R,ugm-3,50,R,ugm-3
05-01-1987,17:00,16,R,ugm-3,31,R,ugm-3,55,R,ugm-3
05-01-1987,18:00,13,R,ugm-3,25,R,ugm-3,44,R,ugm-3
05-01-1987,19:00,14,R,ugm-3,25,R,ugm-3,46,R,ugm-3
05-01-1987,20:00,9,R,ugm-3,19,R,ugm-3,32,R,ugm-3
05-01-1987,21:00,6,R,ugm-3,23,R,ugm-3,32,R,ugm-3
05-01-1987,22:00,13,R,ugm-3,34,R,ugm-3,53,R,ugm-3
05-01-1987,23:00,9,R,ugm-3,23,R,ugm-3,36,R,ugm-3
05-01-1987,24:00,9,R,ugm-3,17,R,ugm-3,31,R,ugm-3
06-01-1987,01:00,5,R,ugm-3,17,R,ugm-3,25,R,ugm-3
06-01-1987,02:00,,,,,,,,,
06-01-1987,03:00,,,,,,,,,
06-01-1987,04:00,,,,,,,,,
06-01-1987,05:00,,,,,,,,,
06-01-1987,06:00,,,,,,,,,
06-01-1987,07:00,,,,,,,,,
06-01-1987,08:00,,,,,,,,,
06-01-1987,09:00,,,,,,,,,
06-01-1987,10:00,,,,,,,,,
06-01-1987,11:00,,,,,,,,,
06-01-1987,12:00,,,,,,,,,
06-01-1987,13:00,,,,,,,,,
06-01-1987,14:00,,,,,,,,,
06-01-1987,15:00,,,,,,,,,
06-01-1987,16:00,,,,,,,,,
06-01-1987,17:00,,,,,,,,,
06-01-1987,18:00,,,,,,,,,
06-01-1987,19:00,,,,,,,,,
06-01-1987,20:00,,,,,,,,,
06-01-1987,21:00,,,,,,,,,
06-01-1987,22:00,,,,,,,,,
06-01-1987,23:00,,,,,,,,,
06-01-1987,24:00,,,,,,,,,
07-01-1987,01:00,5,R,ugm-3,21,R,ugm-3,29,R,ugm-3
07-01-1987,02:00,20,R,ugm-3,40,R,ugm-3,71,R,ugm-3
07-01-1987,03:00,6,R,ugm-3,17,R,ugm-3,27,R,ugm-3
07-01-1987,04:00,4,R,ugm-3,11,R,ugm-3,17,R,ugm-3
07-01-1987,05:00,6,R,ugm-3,17,R,ugm-3,27,R,ugm-3
07-01-1987,06:00,3,R,ugm-3,11,R,ugm-3,15,R,ugm-3
07-01-1987,07:00,5,R,ugm-3,13,R,ugm-3,21,R,ugm-3
07-01-1987,08:00,18,R,ugm-3,31,R,ugm-3,57,R,ugm-3
07-01-1987,09:00,23,R,ugm-3,40,R,ugm-3,74,R,ugm-3
07-01-1987,10:00,20,R,ugm-3,40,R,ugm-3,71,R,ugm-3
07-01-1987,11:00,24,R,ugm-3,38,R,ugm-3,74,R,ugm-3
07-01-1987,12:00,36,R,ugm-3,44,R,ugm-3,99,R,ugm-3
07-01-1987,13:00,39,R,ugm-3,53,R,ugm-3,113,R,ugm-3
07-01-1987,14:00,29,R,ugm-3,44,R,ugm-3,88,R,ugm-3
07-01-1987,15:00,75,R,ugm-3,82,R,ugm-3,197,R,ugm-3
07-01-1987,16:00,31,R,ugm-3,50,R,ugm-3,97,R,ugm-3
07-01-1987,17:00,45,R,ugm-3,61,R,ugm-3,130,R,ugm-3
07-01-1987,18:00,38,R,ugm-3,55,R,ugm-3,113,R,ugm-3
07-01-1987,19:00,43,R,ugm-3,53,R,ugm-3,118,R,ugm-3
07-01-1987,20:00,23,R,ugm-3,52,R,ugm-3,86,R,ugm-3
07-01-1987,21:00,18,R,ugm-3,50,R,ugm-3,76,R,ugm-3
07-01-1987,22:00,24,R,ugm-3,48,R,ugm-3,84,R,ugm-3
07-01-1987,23:00,30,R,ugm-3,50,R,ugm-3,96,R,ugm-3
07-01-1987,24:00,36,R,ugm-3,46,R,ugm-3,101,R,ugm-3
08-01-1987,01:00,28,R,ugm-3,44,R,ugm-3,86,R,ugm-3
08-01-1987,02:00,15,R,ugm-3,38,R,ugm-3,61,R,ugm-3
08-01-1987,03:00,10,R,ugm-3,34,R,ugm-3,50,R,ugm-3
08-01-1987,04:00,6,R,ugm-3,32,R,ugm-3,42,R,ugm-3
08-01-1987,05:00,8,R,ugm-3,27,R,ugm-3,38,R,ugm-3
08-01-1987,06:00,11,R,ugm-3,34,R,ugm-3,52,R,ugm-3
08-01-1987,07:00,48,R,ugm-3,42,R,ugm-3,115,R,ugm-3
08-01-1987,08:00,101,R,ugm-3,55,R,ugm-3,210,R,ugm-3
08-01-1987,09:00,294,R,ugm-3,76,R,ugm-3,525,R,ugm-3
08-01-1987,10:00,258,R,ugm-3,67,R,ugm-3,460,R,ugm-3
08-01-1987,11:00,94,R,ugm-3,44,R,ugm-3,187,R,ugm-3
08-01-1987,12:00,76,R,ugm-3,36,R,ugm-3,153,R,ugm-3
08-01-1987,13:00,66,R,ugm-3,38,R,ugm-3,139,R,ugm-3
08-01-1987,14:00,69,R,ugm-3,40,R,ugm-3,145,R,ugm-3
08-01-1987,15:00,78,R,ugm-3,42,R,ugm-3,160,R,ugm-3
08-01-1987,16:00,,,,,,,,,
08-01-1987,17:00,,,,,,,,,
08-01-1987,18:00,,,,,,,,,
08-01-1987,19:00,,,,,,,,,
08-01-1987,20:00,,,,,,,,,
08-01-1987,21:00,,,,,,,,,
08-01-1987,22:00,135,R,ugm-3,59,R,ugm-3,265,R,ugm-3
08-01-1987,23:00,195,R,ugm-3,65,R,ugm-3,363,R,ugm-3
08-01-1987,24:00,259,R,ugm-3,73,R,ugm-3,468,R,ugm-3
09-01-1987,01:00,450,R,ugm-3,90,R,ugm-3,777,R,ugm-3
09-01-1987,02:00,318,R,ugm-3,69,R,ugm-3,554,R,ugm-3
09-01-1987,03:00,238,R,ugm-3,57,R,ugm-3,420,R,ugm-3
09-01-1987,04:00,245,R,ugm-3,57,R,ugm-3,432,R,ugm-3
09-01-1987,05:00,163,R,ugm-3,55,R,ugm-3,304,R,ugm-3
09-01-1987,06:00,148,R,ugm-3,53,R,ugm-3,279,R,ugm-3
09-01-1987,07:00,134,R,ugm-3,48,R,ugm-3,252,R,ugm-3
09-01-1987,08:00,136,R,ugm-3,50,R,ugm-3,258,R,ugm-3
09-01-1987,09:00,120,R,ugm-3,38,R,ugm-3,222,R,ugm-3
09-01-1987,10:00,119,R,ugm-3,42,R,ugm-3,223,R,ugm-3
09-01-1987,11:00,121,R,ugm-3,52,R,ugm-3,237,R,ugm-3
09-01-1987,12:00,125,R,ugm-3,55,R,ugm-3,246,R,ugm-3
09-01-1987,13:00,136,R,ugm-3,57,R,ugm-3,265,R,ugm-3
09-01-1987,14:00,193,R,ugm-3,71,R,ugm-3,365,R,ugm-3
09-01-1987,15:00,164,R,ugm-3,63,R,ugm-3,313,R,ugm-3
09-01-1987,16:00,159,R,ugm-3,73,R,ugm-3,315,R,ugm-3
09-01-1987,17:00,156,R,ugm-3,69,R,ugm-3,308,R,ugm-3
09-01-1987,18:00,149,R,ugm-3,67,R,ugm-3,294,R,ugm-3
09-01-1987,19:00,176,R,ugm-3,76,R,ugm-3,346,R,ugm-3
09-01-1987,20:00,201,R,ugm-3,80,R,ugm-3,388,R,ugm-3
09-01-1987,21:00,209,R,ugm-3,63,R,ugm-3,382,R,ugm-3
09-01-1987,22:00,200,R,ugm-3,61,R,ugm-3,367,R,ugm-3
09-01-1987,23:00,231,R,ugm-3,63,R,ugm-3,416,R,ugm-3
09-01-1987,24:00,276,R,ugm-3,65,R,ugm-3,487,R,ugm-3
10-01-1987,01:00,131,R,ugm-3,46,R,ugm-3,246,R,ugm-3
10-01-1987,02:00,121,R,ugm-3,46,R,ugm-3,231,R,ugm-3
10-01-1987,03:00,21,R,ugm-3,32,R,ugm-3,65,R,ugm-3
10-01-1987,04:00,20,R,ugm-3,32,R,ugm-3,63,R,ugm-3
10-01-1987,05:00,89,R,ugm-3,61,R,ugm-3,197,R,ugm-3
10-01-1987,06:00,51,R,ugm-3,42,R,ugm-3,120,R,ugm-3
10-01-1987,07:00,86,R,ugm-3,73,R,ugm-3,204,R,ugm-3
10-01-1987,08:00,54,R,ugm-3,34,R,ugm-3,117,R,ugm-3
10-01-1987,09:00,33,R,ugm-3,34,R,ugm-3,84,R,ugm-3
10-01-1987,10:00,11,R,ugm-3,21,R,ugm-3,38,R,ugm-3
10-01-1987,11:00,9,R,ugm-3,2,R,ugm-3,15,R,ugm-3
10-01-1987,12:00,9,R,ugm-3,6,R,ugm-3,19,R,ugm-3
10-01-1987,13:00,9,R,ugm-3,4,R,ugm-3,17,R,ugm-3
10-01-1987,14:00,8,R,ugm-3,11,R,ugm-3,23,R,ugm-3
10-01-1987,15:00,9,R,ugm-3,19,R,ugm-3,32,R,ugm-3
10-01-1987,16:00,8,R,ugm-3,17,R,ugm-3,29,R,ugm-3
10-01-1987,17:00,8,R,ugm-3,13,R,ugm-3,25,R,ugm-3
10-01-1987,18:00,8,R,ugm-3,10,R,ugm-3,21,R,ugm-3
10-01-1987,19:00,6,R,ugm-3,10,R,ugm-3,19,R,ugm-3
10-01-1987,20:00,8,R,ugm-3,11,R,ugm-3,23,R,ugm-3
10-01-1987,21:00,8,R,ugm-3,15,R,ugm-3,27,R,ugm-3
10-01-1987,22:00,6,R,ugm-3,19,R,ugm-3,29,R,ugm-3
10-01-1987,23:00,6,R,ugm-3,15,R,ugm-3,25,R,ugm-3
10-01-1987,24:00,9,R,ugm-3,23,R,ugm-3,36,R,ugm-3
11-01-1987,01:00,6,R,ugm-3,27,R,ugm-3,36,R,ugm-3
11-01-1987,02:00,5,R,ugm-3,19,R,ugm-3,27,R,ugm-3
11-01-1987,03:00,6,R,ugm-3,15,R,ugm-3,25,R,ugm-3
11-01-1987,04:00,5,R,ugm-3,25,R,ugm-3,32,R,ugm-3
11-01-1987,05:00,20,R,ugm-3,40,R,ugm-3,71,R,ugm-3
11-01-1987,06:00,4,R,ugm-3,17,R,ugm-3,23,R,ugm-3
11-01-1987,07:00,5,R,ugm-3,15,R,ugm-3,23,R,ugm-3
11-01-1987,08:00,4,R,ugm-3,8,R,ugm-3,13,R,ugm-3
11-01-1987,09:00,10,R,ugm-3,11,R,ugm-3,27,R,ugm-3
11-01-1987,10:00,4,R,ugm-3,8,R,ugm-3,13,R,ugm-3
11-01-1987,11:00,4,R,ugm-3,21,R,ugm-3,27,R,ugm-3
11-01-1987,12:00,3,R,ugm-3,13,R,ugm-3,17,R,ugm-3
11-01-1987,13:00,4,R,ugm-3,17,R,ugm-3,23,R,ugm-3
11-01-1987,14:00,4,R,ugm-3,23,R,ugm-3,29,R,ugm-3
11-01-1987,15:00,4,R,ugm-3,21,R,ugm-3,27,R,ugm-3
11-01-1987,16:00,5,R,ugm-3,13,R,ugm-3,21,R,ugm-3
11-01-1987,17:00,8,R,ugm-3,15,R,ugm-3,27,R,ugm-3
11-01-1987,18:00,10,R,ugm-3,25,R,ugm-3,40,R,ugm-3
11-01-1987,19:00,5,R,ugm-3,15,R,ugm-3,23,R,ugm-3
11-01-1987,20:00,9,R,ugm-3,23,R,ugm-3,36,R,ugm-3
11-01-1987,21:00,6,R,ugm-3,21,R,ugm-3,31,R,ugm-3
11-01-1987,22:00,3,R,ugm-3,11,R,ugm-3,15,R,ugm-3
11-01-1987,23:00,5,R,ugm-3,19,R,ugm-3,27,R,ugm-3
11-01-1987,24:00,11,R,ugm-3,34,R,ugm-3,52,R,ugm-3
12-01-1987,01:00,9,R,ugm-3,36,R,ugm-3,50,R,ugm-3
12-01-1987,02:00,3,R,ugm-3,17,R,ugm-3,21,R,ugm-3
12-01-1987,03:00,8,R,ugm-3,29,R,ugm-3,40,R,ugm-3
12-01-1987,04:00,5,R,ugm-3,27,R,ugm-3,34,R,ugm-3
12-01-1987,05:00,19,R,ugm-3,36,R,ugm-3,65,R,ugm-3
12-01-1987,06:00,6,R,ugm-3,23,R,ugm-3,32,R,ugm-3
12-01-1987,07:00,3,R,ugm-3,25,R,ugm-3,29,R,ugm-3
12-01-1987,08:00,4,R,ugm-3,21,R,ugm-3,27,R,ugm-3
12-01-1987,09:00,3,R,ugm-3,19,R,ugm-3,23,R,ugm-3
12-01-1987,10:00,3,R,ugm-3,23,R,ugm-3,27,R,ugm-3
12-01-1987,11:00,3,R,ugm-3,21,R,ugm-3,25,R,ugm-3
12-01-1987,12:00,3,R,ugm-3,19,R,ugm-3,23,R,ugm-3
12-01-1987,13:00,1,R,ugm-3,21,R,ugm-3,23,R,ugm-3
12-01-1987,14:00,25,R,ugm-3,40,R,ugm-3,78,R,ugm-3
12-01-1987,15:00,36,R,ugm-3,42,R,ugm-3,97,R,ugm-3
12-01-1987,16:00,15,R,ugm-3,27,R,ugm-3,50,R,ugm-3
12-01-1987,17:00,9,R,ugm-3,19,R,ugm-3,32,R,ugm-3
12-01-1987,18:00,8,R,ugm-3,29,R,ugm-3,40,R,ugm-3
12-01-1987,19:00,9,R,ugm-3,34,R,ugm-3,48,R,ugm-3
12-01-1987,20:00,6,R,ugm-3,29,R,ugm-3,38,R,ugm-3
12-01-1987,21:00,10,R,ugm-3,31,R,ugm-3,46,R,ugm-3
12-01-1987,22:00,4,R,ugm-3,17,R,ugm-3,23,R,ugm-3
12-01-1987,23:00,4,R,ugm-3,31,R,ugm-3,36,R,ugm-3
12-01-1987,24:00,13,R,ugm-3,31,R,ugm-3,50,R,ugm-3
13-01-1987,01:00,5,R,ugm-3,15,R,ugm-3,23,R,ugm-3
13-01-1987,02:00,5,R,ugm-3,15,R,ugm-3,23,R,ugm-3
13-01-1987,03:00,3,R,ugm-3,15,R,ugm-3,19,R,ugm-3
13-01-1987,04:00,4,R,ugm-3,23,R,ugm-3,29,R,ugm-3
13-01-1987,05:00,4,R,ugm-3,17,R,ugm-3,23,R,ugm-3
13-01-1987,06:00,3,R,ugm-3,17,R,ugm-3,21,R,ugm-3
13-01-1987,07:00,4,R,ugm-3,19,R,ugm-3,25,R,ugm-3
13-01-1987,08:00,10,R,ugm-3,25,R,ugm-3,40,R,ugm-3
13-01-1987,09:00,25,R,ugm-3,36,R,ugm-3,74,R,ugm-3
13-01-1987,10:00,15,R,ugm-3,21,R,ugm-3,44,R,ugm-3
13-01-1987,11:00,24,R,ugm-3,29,R,ugm-3,65,R,ugm-3
13-01-1987,12:00,16,R,ugm-3,17,R,ugm-3,42,R,ugm-3
13-01-1987,13:00,,,,,,,,,
13-01-1987,14:00,,,,,,,,,
13-01-1987,15:00,,,,,,,,,
13-01-1987,16:00,,,,,,,,,
13-01-1987,17:00,,,,,,,,,
13-01-1987,18:00,,,,,,,,,
13-01-1987,19:00,,,,,,,,,
13-01-1987,20:00,,,,,,,,,
13-01-1987,21:00,,,,,,,,,
13-01-1987,22:00,,,,,,,,,
13-01-1987,23:00,,,,,,,,,
13-01-1987,24:00,,,,,,,,,
14-01-1987,01:00,,,,,,,,,
14-01-1987,02:00,,,,,,,,,
14-01-1987,03:00,,,,,,,,,
14-01-1987,04:00,,,,,,,,,
14-01-1987,05:00,,,,,,,,,
14-01-1987,06:00,,,,,,,,,
14-01-1987,07:00,,,,,,,,,
14-01-1987,08:00,,,,,,,,,
14-01-1987,09:00,,,,,,,,,
14-01-1987,10:00,,,,,,,,,
14-01-1987,11:00,,,,,,,,,
14-01-1987,12:00,,,,,,,,,
14-01-1987,13:00,,,,,,,,,
14-01-1987,14:00,28,R,ugm-3,40,R,ugm-3,82,R,ugm-3
14-01-1987,15:00,21,R,ugm-3,29,R,ugm-3,61,R,ugm-3
14-01-1987,16:00,13,R,ugm-3,19,R,ugm-3,38,R,ugm-3
14-01-1987,17:00,6,R,ugm-3,13,R,ugm-3,23,R,ugm-3
14-01-1987,18:00,10,R,ugm-3,19,R,ugm-3,34,R,ugm-3
14-01-1987,19:00,9,R,ugm-3,15,R,ugm-3,29,R,ugm-3
14-01-1987,20:00,10,R,ugm-3,15,R,ugm-3,31,R,ugm-3
14-01-1987,21:00,6,R,ugm-3,11,R,ugm-3,21,R,ugm-3
14-01-1987,22:00,5,R,ugm-3,10,R,ugm-3,17,R,ugm-3
14-01-1987,23:00,8,R,ugm-3,11,R,ugm-3,23,R,ugm-3
14-01-1987,24:00,5,R,ugm-3,10,R,ugm-3,17,R,ugm-3
15-01-1987,01:00,6,R,ugm-3,8,R,ugm-3,17,R,ugm-3
15-01-1987,02:00,8,R,ugm-3,13,R,ugm-3,25,R,ugm-3
15-01-1987,03:00,6,R,ugm-3,15,R,ugm-3,25,R,ugm-3
15-01-1987,04:00,8,R,ugm-3,15,R,ugm-3,27,R,ugm-3
15-01-1987,05:00,9,R,ugm-3,19,R,ugm-3,32,R,ugm-3
15-01-1987,06:00,6,R,ugm-3,21,R,ugm-3,31,R,ugm-3
15-01-1987,07:00,10,R,ugm-3,31,R,ugm-3,46,R,ugm-3
15-01-1987,08:00,23,R,ugm-3,32,R,ugm-3,67,R,ugm-3
15-01-1987,09:00,33,R,ugm-3,38,R,ugm-3,88,R,ugm-3
15-01-1987,10:00,53,R,ugm-3,46,R,ugm-3,126,R,ugm-3
15-01-1987,11:00,29,R,ugm-3,34,R,ugm-3,78,R,ugm-3
15-01-1987,12:00,23,R,ugm-3,32,R,ugm-3,67,R,ugm-3
15-01-1987,13:00,18,R,ugm-3,23,R,ugm-3,50,R,ugm-3
15-01-1987,14:00,28,R,ugm-3,38,R,ugm-3,80,R,ugm-3
15-01-1987,15:00,26,R,ugm-3,36,R,ugm-3,76,R,ugm-3
15-01-1987,16:00,16,R,ugm-3,31,R,ugm-3,55,R,ugm-3
15-01-1987,17:00,16,R,ugm-3,27,R,ugm-3,52,R,ugm-3
15-01-1987,18:00,10,R,ugm-3,23,R,ugm-3,38,R,ugm-3
15-01-1987,19:00,10,R,ugm-3,19,R,ugm-3,34,R,ugm-3
15-01-1987,20:00,9,R,ugm-3,11,R,ugm-3,25,R,ugm-3
15-01-1987,21:00,8,R,ugm-3,8,R,ugm-3,19,R,ugm-3
15-01-1987,22:00,8,R,ugm-3,10,R,ugm-3,21,R,ugm-3
15-01-1987,23:00,10,R,ugm-3,11,R,ugm-3,27,R,ugm-3
15-01-1987,24:00,11,R,ugm-3,10,R,ugm-3,27,R,ugm-3
16-01-1987,01:00,10,R,ugm-3,15,R,ugm-3,31,R,ugm-3
16-01-1987,02:00,8,R,ugm-3,13,R,ugm-3,25,R,ugm-3
16-01-1987,03:00,8,R,ugm-3,11,R,ugm-3,23,R,ugm-3
16-01-1987,04:00,10,R,ugm-3,19,R,ugm-3,34,R,ugm-3
16-01-1987,05:00,9,R,ugm-3,25,R,ugm-3,38,R,ugm-3
16-01-1987,06:00,5,R,ugm-3,19,R,ugm-3,27,R,ugm-3
16-01-1987,07:00,11,R,ugm-3,27,R,ugm-3,44,R,ugm-3
16-01-1987,08:00,18,R,ugm-3,31,R,ugm-3,57,R,ugm-3
16-01-1987,09:00,18,R,ugm-3,27,R,ugm-3,53,R,ugm-3
16-01-1987,10:00,19,R,ugm-3,29,R,ugm-3,57,R,ugm-3
16-01-1987,11:00,19,R,ugm-3,25,R,ugm-3,53,R,ugm-3
16-01-1987,12:00,15,R,ugm-3,25,R,ugm-3,48,R,ugm-3
16-01-1987,13:00,31,R,ugm-3,46,R,ugm-3,94,R,ugm-3
16-01-1987,14:00,33,R,ugm-3,46,R,ugm-3,96,R,ugm-3
16-01-1987,15:00,35,R,ugm-3,46,R,ugm-3,99,R,ugm-3
16-01-1987,16:00,16,R,ugm-3,38,R,ugm-3,63,R,ugm-3
16-01-1987,17:00,13,R,ugm-3,31,R,ugm-3,50,R,ugm-3
16-01-1987,18:00,11,R,ugm-3,36,R,ugm-3,53,R,ugm-3
16-01-1987,19:00,9,R,ugm-3,21,R,ugm-3,34,R,ugm-3
16-01-1987,20:00,9,R,ugm-3,17,R,ugm-3,31,R,ugm-3
16-01-1987,21:00,9,R,ugm-3,21,R,ugm-3,34,R,ugm-3
16-01-1987,22:00,8,R,ugm-3,10,R,ugm-3,21,R,ugm-3
16-01-1987,23:00,20,R,ugm-3,25,R,ugm-3,55,R,ugm-3
16-01-1987,24:00,9,R,ugm-3,13,R,ugm-3,27,R,ugm-3
17-01-1987,01:00,20,R,ugm-3,23,R,ugm-3,53,R,ugm-3
17-01-1987,02:00,16,R,ugm-3,21,R,ugm-3,46,R,ugm-3
17-01-1987,03:00,13,R,ugm-3,15,R,ugm-3,34,R,ugm-3
17-01-1987,04:00,11,R,ugm-3,21,R,ugm-3,38,R,ugm-3
17-01-1987,05:00,9,R,ugm-3,15,R,ugm-3,29,R,ugm-3
17-01-1987,06:00,8,R,ugm-3,15,R,ugm-3,27,R,ugm-3
17-01-1987,07:00,9,R,ugm-3,19,R,ugm-3,32,R,ugm-3
17-01-1987,08:00,20,R,ugm-3,38,R,ugm-3,69,R,ugm-3
17-01-1987,09:00,36,R,ugm-3,42,R,ugm-3,97,R,ugm-3
17-01-1987,10:00,26,R,ugm-3,42,R,ugm-3,82,R,ugm-3
17-01-1987,11:00,44,R,ugm-3,61,R,ugm-3,128,R,ugm-3
17-01-1987,12:00,41,R,ugm-3,63,R,ugm-3,126,R,ugm-3
17-01-1987,13:00,48,R,ugm-3,69,R,ugm-3,141,R,ugm-3
17-01-1987,14:00,33,R,ugm-3,57,R,ugm-3,107,R,ugm-3
17-01-1987,15:00,63,R,ugm-3,78,R,ugm-3,174,R,ugm-3
17-01-1987,16:00,46,R,ugm-3,53,R,ugm-3,124,R,ugm-3
17-01-1987,17:00,21,R,ugm-3,34,R,ugm-3,67,R,ugm-3
17-01-1987,18:00,24,R,ugm-3,38,R,ugm-3,74,R,ugm-3
17-01-1987,19:00,28,R,ugm-3,46,R,ugm-3,88,R,ugm-3
17-01-1987,20:00,19,R,ugm-3,48,R,ugm-3,76,R,ugm-3
17-01-1987,21:00,34,R,ugm-3,50,R,ugm-3,101,R,ugm-3
17-01-1987,22:00,40,R,ugm-3,55,R,ugm-3,117,R,ugm-3
17-01-1987,23:00,68,R,ugm-3,67,R,ugm-3,170,R,ugm-3
17-01-1987,24:00,88,R,ugm-3,67,R,ugm-3,201,R,ugm-3
18-01-1987,01:00,81,R,ugm-3,55,R,ugm-3,180,R,ugm-3
18-01-1987,02:00,66,R,ugm-3,52,R,ugm-3,153,R,ugm-3
18-01-1987,03:00,79,R,ugm-3,53,R,ugm-3,174,R,ugm-3
18-01-1987,04:00,60,R,ugm-3,52,R,ugm-3,143,R,ugm-3
18-01-1987,05:00,78,R,ugm-3,53,R,ugm-3,172,R,ugm-3
18-01-1987,06:00,76,R,ugm-3,57,R,ugm-3,174,R,ugm-3
18-01-1987,07:00,81,R,ugm-3,59,R,ugm-3,183,R,ugm-3
18-01-1987,08:00,83,R,ugm-3,53,R,ugm-3,180,R,ugm-3
18-01-1987,09:00,81,R,ugm-3,52,R,ugm-3,176,R,ugm-3
18-01-1987,10:00,89,R,ugm-3,52,R,ugm-3,187,R,ugm-3
18-01-1987,11:00,61,R,ugm-3,44,R,ugm-3,138,R,ugm-3
18-01-1987,12:00,56,R,ugm-3,46,R,ugm-3,132,R,ugm-3
18-01-1987,13:00,41,R,ugm-3,42,R,ugm-3,105,R,ugm-3
18-01-1987,14:00,78,R,ugm-3,52,R,ugm-3,170,R,ugm-3
18-01-1987,15:00,70,R,ugm-3,52,R,ugm-3,159,R,ugm-3
18-01-1987,16:00,50,R,ugm-3,50,R,ugm-3,126,R,ugm-3
18-01-1987,17:00,49,R,ugm-3,53,R,ugm-3,128,R,ugm-3
18-01-1987,18:00,51,R,ugm-3,50,R,ugm-3,128,R,ugm-3
18-01-1987,19:00,78,R,ugm-3,67,R,ugm-3,185,R,ugm-3
18-01-1987,20:00,46,R,ugm-3,53,R,ugm-3,124,R,ugm-3
18-01-1987,21:00,74,R,ugm-3,61,R,ugm-3,174,R,ugm-3
18-01-1987,22:00,69,R,ugm-3,61,R,ugm-3,166,R,ugm-3
18-01-1987,23:00,71,R,ugm-3,52,R,ugm-3,160,R,ugm-3
18-01-1987,24:00,60,R,ugm-3,48,R,ugm-3,139,R,ugm-3
19-01-1987,01:00,98,R,ugm-3,50,R,ugm-3,199,R,ugm-3
19-01-1987,02:00,120,R,ugm-3,65,R,ugm-3,248,R,ugm-3
19-01-1987,03:00,61,R,ugm-3,50,R,ugm-3,143,R,ugm-3
19-01-1987,04:00,153,R,ugm-3,76,R,ugm-3,309,R,ugm-3
19-01-1987,05:00,136,R,ugm-3,76,R,ugm-3,285,R,ugm-3
19-01-1987,06:00,109,R,ugm-3,69,R,ugm-3,235,R,ugm-3
19-01-1987,07:00,128,R,ugm-3,71,R,ugm-3,265,R,ugm-3
19-01-1987,08:00,110,R,ugm-3,57,R,ugm-3,225,R,ugm-3
19-01-1987,09:00,114,R,ugm-3,52,R,ugm-3,225,R,ugm-3
19-01-1987,10:00,79,R,ugm-3,42,R,ugm-3,162,R,ugm-3
19-01-1987,11:00,78,R,ugm-3,44,R,ugm-3,162,R,ugm-3
19-01-1987,12:00,55,R,ugm-3,44,R,ugm-3,128,R,ugm-3
19-01-1987,13:00,49,R,ugm-3,42,R,ugm-3,117,R,ugm-3
19-01-1987,14:00,51,R,ugm-3,44,R,ugm-3,122,R,ugm-3
19-01-1987,15:00,58,R,ugm-3,46,R,ugm-3,134,R,ugm-3
19-01-1987,16:00,86,R,ugm-3,107,R,ugm-3,239,R,ugm-3
19-01-1987,17:00,84,R,ugm-3,107,R,ugm-3,235,R,ugm-3
19-01-1987,18:00,106,R,ugm-3,113,R,ugm-3,275,R,ugm-3
19-01-1987,19:00,109,R,ugm-3,111,R,ugm-3,277,R,ugm-3
19-01-1987,20:00,89,R,ugm-3,103,R,ugm-3,239,R,ugm-3
19-01-1987,21:00,93,R,ugm-3,101,R,ugm-3,243,R,ugm-3
19-01-1987,22:00,91,R,ugm-3,103,R,ugm-3,243,R,ugm-3
19-01-1987,23:00,89,R,ugm-3,101,R,ugm-3,237,R,ugm-3
19-01-1987,24:00,123,R,ugm-3,117,R,ugm-3,304,R,ugm-3
20-01-1987,01:00,64,R,ugm-3,94,R,ugm-3,191,R,ugm-3
20-01-1987,02:00,51,R,ugm-3,88,R,ugm-3,166,R,ugm-3
20-01-1987,03:00,58,R,ugm-3,88,R,ugm-3,176,R,ugm-3
20-01-1987,04:00,54,R,ugm-3,82,R,ugm-3,164,R,ugm-3
20-01-1987,05:00,50,R,ugm-3,80,R,ugm-3,157,R,ugm-3
20-01-1987,06:00,45,R,ugm-3,76,R,ugm-3,145,R,ugm-3
20-01-1987,07:00,45,R,ugm-3,73,R,ugm-3,141,R,ugm-3
20-01-1987,08:00,50,R,ugm-3,74,R,ugm-3,151,R,ugm-3
20-01-1987,09:00,88,R,ugm-3,86,R,ugm-3,220,R,ugm-3
20-01-1987,10:00,91,R,ugm-3,84,R,ugm-3,223,R,ugm-3
20-01-1987,11:00,75,R,ugm-3,78,R,ugm-3,193,R,ugm-3
20-01-1987,12:00,66,R,ugm-3,78,R,ugm-3,180,R,ugm-3
20-01-1987,13:00,69,R,ugm-3,73,R,ugm-3,178,R,ugm-3
20-01-1987,14:00,88,R,ugm-3,96,R,ugm-3,229,R,ugm-3
20-01-1987,15:00,54,R,ugm-3,74,R,ugm-3,157,R,ugm-3
20-01-1987,16:00,84,R,ugm-3,88,R,ugm-3,216,R,ugm-3
20-01-1987,17:00,199,R,ugm-3,130,R,ugm-3,434,R,ugm-3
20-01-1987,18:00,233,R,ugm-3,136,R,ugm-3,491,R,ugm-3
20-01-1987,19:00,231,R,ugm-3,143,R,ugm-3,497,R,ugm-3
20-01-1987,20:00,178,R,ugm-3,118,R,ugm-3,390,R,ugm-3
20-01-1987,21:00,195,R,ugm-3,120,R,ugm-3,418,R,ugm-3
20-01-1987,22:00,136,R,ugm-3,92,R,ugm-3,300,R,ugm-3
20-01-1987,23:00,104,R,ugm-3,73,R,ugm-3,231,R,ugm-3
20-01-1987,24:00,74,R,ugm-3,61,R,ugm-3,174,R,ugm-3
21-01-1987,01:00,90,R,ugm-3,63,R,ugm-3,201,R,ugm-3
21-01-1987,02:00,50,R,ugm-3,50,R,ugm-3,126,R,ugm-3
21-01-1987,03:00,45,R,ugm-3,44,R,ugm-3,113,R,ugm-3
21-01-1987,04:00,63,R,ugm-3,53,R,ugm-3,149,R,ugm-3
21-01-1987,05:00,71,R,ugm-3,57,R,ugm-3,166,R,ugm-3
21-01-1987,06:00,74,R,ugm-3,55,R,ugm-3,168,R,ugm-3
21-01-1987,07:00,86,R,ugm-3,61,R,ugm-3,193,R,ugm-3
21-01-1987,08:00,160,R,ugm-3,99,R,ugm-3,344,R,ugm-3
21-01-1987,09:00,293,R,ugm-3,138,R,ugm-3,584,R,ugm-3
21-01-1987,10:00,613,R,ugm-3,265,R,ugm-3,1201,R,ugm-3
21-01-1987,11:00,336,R,ugm-3,162,R,ugm-3,676,R,ugm-3
21-01-1987,12:00,200,R,ugm-3,126,R,ugm-3,432,R,ugm-3
21-01-1987,13:00,160,R,ugm-3,88,R,ugm-3,332,R,ugm-3
21-01-1987,14:00,136,R,ugm-3,86,R,ugm-3,294,R,ugm-3
21-01-1987,15:00,136,R,ugm-3,84,R,ugm-3,292,R,ugm-3
21-01-1987,16:00,158,R,ugm-3,88,R,ugm-3,329,R,ugm-3
21-01-1987,17:00,176,R,ugm-3,99,R,ugm-3,369,R,ugm-3
21-01-1987,18:00,189,R,ugm-3,101,R,ugm-3,390,R,ugm-3
21-01-1987,19:00,179,R,ugm-3,99,R,ugm-3,372,R,ugm-3